Le nostre stazioni meteo in Italia

Pubblicità
Il mio iltempo24.it
San Pietro Capofiume, Italia (16144): Temperatura & dewpoint: 07.12.2019 22:00:00 - 13.12.2019 22:00:00 (CET)San Pietro Capofiume, Italia (16144): velocità del vento: 07.12.2019 22:00:00 - 13.12.2019 22:00:00 (CET)San Pietro Capofiume, Italia (16144): direzione del vento: 07.12.2019 22:00:00 - 13.12.2019 22:00:00 (CET)San Pietro Capofiume, Italia (16144): reduced air pressure: 07.12.2019 22:00:00 - 13.12.2019 22:00:00 (CET)San Pietro Capofiume, Italia (16144): precipitazioni: 07.12.2019 22:00:00 - 13.12.2019 22:00:00 (CET)
Data & Tempo tt [°C] td [°C] ff [km/h] ff [kn] dd ppp [hPa] rr [mm]
13.12.2019 22:00:00 - - - - - - -
13.12.2019 21:00:00 1,8 -0,5 20 11 NO 990,4 0,0
13.12.2019 20:00:00 1,9 -0,4 21 12 ONO 988,8 0,0
13.12.2019 19:00:00 1,8 -0,3 28 15 ONO 987,6 0,2
13.12.2019 18:00:00 1,1 -0,1 29 16 ONO 987,4 1,0
13.12.2019 17:00:00 0,7 -0,3 32 17 ONO 986,8 1,4
13.12.2019 16:00:00 0,4 -0,6 31 17 ONO 986,2 2,6
13.12.2019 15:00:00 2,1 0,9 28 15 ONO 985,0 3,2
13.12.2019 14:00:00 2,7 1,5 23 12 NNO 985,0 2,8
13.12.2019 13:00:00 3,3 2,0 6 3 NNE 985,5 0,4
13.12.2019 12:00:00 3,8 2,3 4 2 NNO 987,8 0,0
13.12.2019 11:00:00 3,4 2,1 9 5 NE 990,0 0,0
13.12.2019 10:00:00 3,1 1,8 6 3 N 991,7 0,0
13.12.2019 09:00:00 1,6 0,4 10 5 ENE 992,3 0,0
13.12.2019 08:00:00 1,3 0,0 9 5 E 994,1 0,2
13.12.2019 07:00:00 0,9 -0,4 8 4 E 995,3 0,0
13.12.2019 06:00:00 0,7 -0,5 7 4 E 996,4 0,0
13.12.2019 05:00:00 0,6 -0,4 6 3 E 997,8 0,0
13.12.2019 04:00:00 0,0 -1,0 9 5 ESE 998,7 0,0
13.12.2019 03:00:00 -0,3 -1,3 5 3 S 1000,2 0,0
13.12.2019 02:00:00 -1,0 -2,0 1 1 SO 1001,3 0,0
13.12.2019 01:00:00 -0,4 -1,4 1 1 SO 1002,2 0,0
13.12.2019 00:00:00 0,0 -1,1 4 2 SO 1003,0 0,0
12.12.2019 23:00:00 0,7 -0,5 5 3 OSO 1003,8 0,0
12.12.2019 22:00:00 1,5 0,3 7 4 O 1004,2 0,0
12.12.2019 21:00:00 1,4 0,2 9 5 ONO 1004,5 0,0
12.12.2019 20:00:00 1,4 0,2 11 6 O 1005,1 0,0
12.12.2019 19:00:00 1,0 -0,2 15 8 ONO 1005,5 0,0
12.12.2019 18:00:00 0,6 -0,4 14 7 ONO 1005,6 0,2
12.12.2019 17:00:00 0,5 -0,5 14 7 ONO 1005,9 0,2
12.12.2019 16:00:00 0,4 -0,6 14 8 ONO 1006,0 0,4
12.12.2019 15:00:00 0,6 -0,4 13 7 ONO 1006,0 0,2
12.12.2019 14:00:00 0,7 -0,3 12 6 ONO 1006,3 0,4
12.12.2019 13:00:00 0,8 -0,2 11 6 ONO 1006,7 0,6
12.12.2019 12:00:00 0,4 -0,6 10 5 ONO 1007,3 0,4
12.12.2019 11:00:00 0,4 -0,7 9 5 NO 1007,9 0,2
12.12.2019 10:00:00 0,7 -0,6 10 5 NO 1008,0 0,4
12.12.2019 09:00:00 1,2 -0,9 13 7 NO 1007,7 0,0
12.12.2019 08:00:00 1,1 -1,0 14 7 NO 1006,9 0,0
12.12.2019 07:00:00 0,4 -1,2 4 2 O 1006,7 0,0
12.12.2019 06:00:00 0,3 -1,5 3 1 SO 1006,6 0,0
12.12.2019 05:00:00 0,1 -1,3 6 3 O 1006,6 0,0
12.12.2019 04:00:00 -0,3 -1,6 3 1 N 1007,0 0,0
12.12.2019 03:00:00 -0,8 -2,1 4 2 N 1007,7 0,0
12.12.2019 02:00:00 -1,4 -2,7 - - - 1008,3 0,0
12.12.2019 01:00:00 -1,2 -2,6 3 2 SSO 1008,9 0,0
12.12.2019 00:00:00 -1,1 -2,5 4 2 S 1009,4 0,0
11.12.2019 23:00:00 -1,0 -2,4 3 2 S 1010,4 0,0
11.12.2019 22:00:00 -0,4 -2,1 3 2 O 1011,0 0,0
11.12.2019 21:00:00 -0,4 -2,0 4 2 O 1011,7 0,0
11.12.2019 20:00:00 0,8 -1,9 3 2 SE 1011,9 -
11.12.2019 19:00:00 0,2 -2,5 1 1 SO 1012,4 0,0
11.12.2019 18:00:00 1,2 -2,4 0 0 O 1013,1 0,0
11.12.2019 17:00:00 3,1 -0,4 1 1 O 1013,5 0,0
11.12.2019 16:00:00 6,5 -0,3 6 3 O 1014,4 0,0
11.12.2019 15:00:00 8,1 -2,0 6 4 ONO 1015,3 0,0
11.12.2019 14:00:00 8,5 -2,5 5 3 NO 1015,9 0,0
11.12.2019 13:00:00 8,1 -1,7 3 1 O 1017,1 0,0
11.12.2019 12:00:00 6,5 -0,7 8 5 NO 1018,2 0,0
11.12.2019 11:00:00 4,5 0,5 10 5 ONO 1019,2 0,0
11.12.2019 10:00:00 2,2 0,1 8 5 O 1020,1 -
11.12.2019 09:00:00 0,1 -1,2 10 5 ONO 1020,3 0,0
11.12.2019 08:00:00 -1,0 -2,1 5 3 ONO 1020,2 0,0
11.12.2019 07:00:00 -0,7 -1,8 6 4 ONO 1020,6 0,0
11.12.2019 06:00:00 -0,9 -2,2 8 5 ONO 1020,7 0,0
11.12.2019 05:00:00 -0,1 -1,4 8 5 O 1020,9 0,0
11.12.2019 04:00:00 -0,6 -2,0 11 6 O 1021,2 0,0
11.12.2019 03:00:00 3,1 -0,9 6 4 NNE 1021,7 0,0
11.12.2019 02:00:00 4,2 -0,6 10 5 N 1021,9 0,0
11.12.2019 01:00:00 4,5 -0,5 8 4 N 1022,2 0,0
11.12.2019 00:00:00 4,7 -0,1 10 6 ENE 1022,3 0,0
10.12.2019 23:00:00 4,4 1,3 13 7 NE 1022,6 0,0
10.12.2019 22:00:00 5,1 2,8 7 4 NNE 1022,4 0,0
10.12.2019 21:00:00 4,9 3,6 9 5 NNE 1022,3 0,0
10.12.2019 20:00:00 5,3 3,5 9 5 NE 1021,9 0,0
10.12.2019 19:00:00 4,8 3,3 5 3 NNE 1021,0 0,0
10.12.2019 18:00:00 6,8 4,3 5 3 NNO 1020,3 0,0
10.12.2019 17:00:00 8,3 5,1 - - - 1019,5 -
10.12.2019 16:00:00 10,8 6,4 5 3 ONO 1019,0 0,0
10.12.2019 15:00:00 11,0 6,7 8 4 NO 1019,3 0,0
10.12.2019 14:00:00 10,1 7,3 8 5 NO 1019,1 0,0
10.12.2019 13:00:00 7,4 6,2 11 6 NO 1019,0 0,0
10.12.2019 12:00:00 5,3 4,3 11 6 ONO 1018,8 0,0
10.12.2019 11:00:00 4,9 3,9 10 5 O 1018,7 0,0
10.12.2019 10:00:00 4,3 3,3 12 6 ONO 1018,1 0,0
10.12.2019 09:00:00 4,2 3,0 15 8 ONO 1017,2 0,0
10.12.2019 08:00:00 4,7 3,5 10 6 NO 1016,4 0,0
10.12.2019 07:00:00 5,0 3,7 11 6 NO 1015,4 0,0
10.12.2019 06:00:00 5,8 4,3 17 9 NO 1014,2 0,0
10.12.2019 05:00:00 5,2 3,9 9 5 NO 1013,7 0,0
10.12.2019 04:00:00 5,2 4,0 11 6 ONO 1012,8 0,0
10.12.2019 03:00:00 5,8 4,6 6 4 ONO 1012,2 0,0
10.12.2019 02:00:00 5,7 4,5 8 4 O 1011,5 0,0
10.12.2019 01:00:00 4,9 3,9 5 3 NO 1010,9 0,0
10.12.2019 00:00:00 4,5 3,5 3 1 O 1010,7 0,0
09.12.2019 23:00:00 3,8 2,8 8 5 O 1009,6 0,0
09.12.2019 22:00:00 2,9 1,9 6 3 O 1009,3 0,2
09.12.2019 21:00:00 1,7 0,7 5 3 O 1009,0 0,0
09.12.2019 20:00:00 4,0 2,8 7 4 O 1008,7 0,0
09.12.2019 19:00:00 4,7 3,4 5 3 OSO 1008,1 0,0
09.12.2019 18:00:00 4,6 3,3 10 5 O 1008,3 0,0
09.12.2019 17:00:00 5,6 4,2 11 6 O 1007,7 0,0
09.12.2019 16:00:00 7,5 5,6 7 4 SO 1007,9 0,0
09.12.2019 15:00:00 7,4 5,9 8 4 N 1007,8 0,0
09.12.2019 14:00:00 7,1 5,9 11 6 NNO 1008,2 0,0
09.12.2019 13:00:00 6,7 5,5 10 6 NO 1008,7 0,8
09.12.2019 12:00:00 6,4 5,2 3 2 E 1009,0 1,0
09.12.2019 11:00:00 5,9 4,7 10 5 NO 1010,2 4,6
09.12.2019 10:00:00 5,3 4,3 11 6 ONO 1010,2 0,6
09.12.2019 09:00:00 4,4 3,4 9 5 ONO 1010,2 0,0
09.12.2019 08:00:00 3,4 2,4 - - - 1010,4 -
09.12.2019 07:00:00 2,1 1,1 5 3 NNO 1010,6 0,0
09.12.2019 06:00:00 2,4 1,4 4 2 NE 1011,0 0,0
09.12.2019 05:00:00 3,5 2,5 3 2 NNO 1011,6 0,0
09.12.2019 04:00:00 3,8 2,6 - - - 1012,9 -
09.12.2019 03:00:00 3,2 2,0 - - - 1013,9 -
09.12.2019 02:00:00 4,4 3,2 - - - 1014,7 0,0
09.12.2019 01:00:00 5,1 3,8 - - - 1015,2 0,0
09.12.2019 00:00:00 5,8 4,3 - - - 1016,2 0,0
08.12.2019 23:00:00 7,0 5,1 2 1 NO 1016,9 0,0
08.12.2019 22:00:00 7,3 5,1 1 0 NNE 1017,3 0,0
08.12.2019 21:00:00 7,6 4,9 0 0 ESE 1017,6 0,0
08.12.2019 20:00:00 7,8 5,6 4 2 ENE 1018,0 0,0
08.12.2019 19:00:00 8,2 5,8 3 2 E 1018,5 0,0
08.12.2019 18:00:00 8,5 6,0 3 2 ENE 1018,6 0,0
08.12.2019 17:00:00 9,2 5,6 4 2 NNE 1018,9 0,0
08.12.2019 16:00:00 9,9 5,7 3 2 ENE 1019,1 0,0
08.12.2019 15:00:00 12,1 5,9 4 2 ENE 1019,2 0,0
08.12.2019 14:00:00 12,1 5,5 2 1 SO 1019,7 0,0
08.12.2019 13:00:00 11,6 5,9 3 2 ONO 1020,6 0,0
08.12.2019 12:00:00 10,6 5,8 3 1 O 1021,4 0,0
08.12.2019 11:00:00 8,1 5,7 6 3 O 1022,5 0,0
08.12.2019 10:00:00 4,9 3,7 5 3 O 1022,8 0,0
08.12.2019 09:00:00 3,1 2,1 3 1 O 1022,5 0,0
08.12.2019 08:00:00 1,6 0,6 7 4 SSO 1022,2 0,0
08.12.2019 07:00:00 0,8 -0,2 0 0 NNO 1022,1 0,0
08.12.2019 06:00:00 0,0 -0,8 0 0 O 1021,9 0,0
08.12.2019 05:00:00 -0,6 -1,4 0 0 NO 1021,9 0,0
08.12.2019 04:00:00 -0,3 -1,3 4 2 ONO 1022,1 0,0
08.12.2019 03:00:00 0,3 -0,7 1 1 NO 1022,1 0,0
08.12.2019 02:00:00 0,1 -0,9 4 2 NO 1022,1 0,0
08.12.2019 01:00:00 0,7 -0,3 3 2 OSO 1022,2 0,0
08.12.2019 00:00:00 1,5 0,3 2 1 N 1022,3 0,0
07.12.2019 23:00:00 2,4 1,2 3 2 N 1022,2 0,0
07.12.2019 22:00:00 3,3 2,0 - - - 1021,6 0,0

tt = Temperatura
td = dewpoint
ff = velocità del vento
dd = direzione del vento
ppp = reduced air pressure
rr = precipitazioni

Stazioni seguenti

WeatherPro
AMSI
MeteoEarth